Regional Weather Roundup
Issued by NWS

Home | Current Version | Previous Version | Graphics & Text | Print | Product List | Glossary On
Versions: 1 2 3 4 5 6 7 8 9 10 11 12 13 14 15 16 17 18 19 20 21 22 23 24 25 26 27 28 29 30 31 32 33 34 35 36 37 38 39 40 41 42 43 44 45 46 47 48 49 50
811
ASUS43 KMPX 180301
RWRMN
WEATHER ROUNDUP FOR MINNESOTA
NATIONAL WEATHER SERVICE TWIN CITIES/CHANHASSEN MN
900 PM CST FRI NOV 17 2017


NOTE: "FAIR" INDICATES FEW OR NO CLOUDS BELOW 12,000 FEET WITH NO
SIGNIFICANT WEATHER AND/OR OBSTRUCTIONS TO VISIBILITY. N/A MEANS
CURRENT SKY AND/OR WEATHER CONDITIONS ARE NOT AVAILABLE.

MNZ060>063-068>070-180400-
   Twin Cities Metro

CITY           SKY/WX    TMP DP  RH WIND       PRES   REMARKS
TWIN CITIES    CLOUDY    38  36  92 N6        29.66R
ST PAUL        CLOUDY    37  36  96 N7        29.67R
CRYSTAL        MOCLDY    37  32  82 NW3       29.66R
LAKEVILLE      CLOUDY    36  36 100 CALM      29.66R FOG
EDEN PRAIRIE   CLOUDY    38  35  89 NW5       29.66R
SOUTH ST PAUL  CLOUDY    38  38 100 N6        29.64F FOG
LAKE ELMO      CLOUDY    36  36 100 NE5       29.65F FOG
$$
MNZ001>005-007-008-013>017-022>024-027-028-180400-
   Northwest Minnesota

CITY           SKY/WX    TMP DP  RH WIND       PRES   REMARKS
BEMIDJI        CLOUDY    22  17  83 NW7       29.71R WCI  13
HALLOCK        CLEAR     12  10  92 NW6       29.77S WCI   3
ROSEAU         CLOUDY    18  12  79 W5        29.75S WCI  11
WARROAD        CLOUDY    18  12  79 W6        29.74R WCI   9
CROOKSTON      CLOUDY    19  16  86 NW5       29.80R WCI  13
FOSSTON        CLOUDY    19  16  86 NW6       29.75R WCI  11
DETROIT LAKES  CLOUDY    25  21  86 NW10      29.73R WCI  15
MOORHEAD       CLOUDY    23  16  74 N13       29.78R WCI  11
PARK RAPIDS    CLOUDY    29  22  75 N7        29.68R WCI  22
MAHNOMEN       FAIR      21  18  86 NW7       29.74R WCI  13
$$
MNZ006-009>011-018-025>026-180400-
   North Central Minnesota

CITY           SKY/WX    TMP DP  RH WIND       PRES   REMARKS
BAUDETTE       PTCLDY    20  15  81 W7        29.71R WCI  11
FLAG ISLAND    CLOUDY    18  12  79 W9        29.71R WCI   6
INTL FALLS     PTCLDY    24  18  77 W5        29.70R WCI  18
WASKISH        CLOUDY    21  18  86 NW3       29.73R
BIG FORK       CLOUDY    28  21  74 CALM      29.68S
LONGVILLE      CLOUDY    30  28  93 CALM      29.67R
GRAND RAPIDS   CLOUDY    30  28  92 N9        29.68R WCI  22
CRANE LAKE     MOCLDY    28  27  93 CALM      29.69R
ORR            PTCLDY    27  23  86 NW6       29.65R WCI  20
COOK           CLOUDY    30  28  93 NW5       29.67R WCI  25
WALKER         FAIR      27  20  74 NW6       29.69S WCI  21
$$
MNZ012-019>021-037-180400-
   Northeast Minnesota

CITY           SKY/WX    TMP DP  RH WIND       PRES   REMARKS
DULUTH         CLOUDY    32  32 100 NW6       29.65R FOG     WCI  26
ELY            CLOUDY    30  30 100 NW3       29.64S
HIBBING        CLOUDY    31  29  92 NW9       29.65R WCI  23
EVELETH        CLOUDY    32  30  93 NW3       29.65S FOG
DULUTH HARBOR  CLOUDY    36  34  93 CALM      29.69R
TWO HARBORS    CLOUDY    36  30  80 CALM      29.63R HAZE
SILVER BAY     CLOUDY    34  34 100 N3        29.61F FOG
GRAND MARAIS     N/A     36  33  89 VRB3      29.63F
G MARAIS ARPRT CLOUDY    30  27  86 NW9G16    29.59F FOG     WCI  22
$$
MNZ029>031-032-039>041-046>048-054>057-064-180400-
   West Central Minnesota

CITY           SKY/WX    TMP DP  RH WIND       PRES   REMARKS
FERGUS FALLS   CLOUDY    27  21  80 NW8       29.77R WCI  18
WHEATON        CLOUDY    30  23  74 NW10      29.79R WCI  21
MORRIS         CLOUDY    30  27  86 NW12      29.70R WCI  21
ALEXANDRIA     CLOUDY    33  29  85 NW6       29.69R WCI  28
ELBOW LAKE     CLOUDY    28  23  79 W10       29.73R WCI  19
WADENA         CLOUDY    28  27  93 NW6       29.68S WCI  22
GLENWOOD       CLOUDY    34  30  86 N6        29.68F WCI  29
APPLETON         N/A     34  27  75 N10       29.70S WCI  26
BENSON         CLOUDY    34  28  80 N7        29.70S WCI  28
ORTONVILLE     CLOUDY    30  25  80 MISG      29.73R
MADISON        CLOUDY    36  30  80 NW7       29.71R
WILLMAR        FAIR      36  34  93 NW3       29.69S
$$
MNZ033>034-036-042>043-049>051-058-059-180400-
   Central Minnesota

CITY           SKY/WX    TMP DP  RH WIND       PRES   REMARKS
ST CLOUD       CLOUDY    34  34 100 N3        29.67R FOG
SAUK CENTRE    FAIR      33  32  96 NW3       29.67F
PAYNESVILLE    CLOUDY    34  34  99 CALM      29.67F
AITKIN         PTCLDY    28  27  93 CALM      29.65F FOG
PINE RIVER     CLOUDY    30  27  86 N6        29.71R WCI  24
BRAINERD       PTCLDY    31  30  96 CALM      29.67F FOG
STAPLES        CLOUDY    30  28  93 NW6       29.68R WCI  24
LONG PRAIRIE   FAIR      32  32 100 CALM      29.67F
LITTLE FALLS   CLOUDY    32  30  93 CALM      29.67F FOG
LITCHFIELD     CLOUDY    36  36 100 CALM      29.67F
BUFFALO        CLOUDY    36  33  90 N3        29.68R FOG
MAPLE LAKE     CLOUDY    36  35  96 NW3       29.68R FOG
HUTCHINSON     CLOUDY    37  35  92 CALM      29.67S
$$
MNZ037-044-045-052-053-180400-
   East Central Minnesota

CITY           SKY/WX    TMP DP  RH WIND       PRES   REMARKS
PRINCETON      CLOUDY    36  34  93 CALM      29.69R FOG
MORA           CLOUDY    32  32 100 NW3       29.69R FOG
CAMBRIDGE      CLOUDY    36  36 100 NW3       29.68R FOG
RUSH CITY      CLOUDY    33  32  97 CALM      29.68R FOG
MOOSE LAKE     CLOUDY    32  32 100 N3        29.66R FOG
HINCKLEY       FAIR      32  32 100 CALM      29.67R FOG
CLOQUET        CLOUDY    34  30  86 NW3       29.65R FOG
MCGREGOR       CLOUDY    32  30  93 CALM      29.66F
$$
MNZ071>073-080-081-089-090-097-098-180400-
   Southwest Minnesota

CITY           SKY/WX    TMP DP  RH WIND       PRES   REMARKS
MONTEVIDEO     MOCLDY    34  30  86 N3        29.70R
GRANITE FALLS  CLOUDY    36  33  90 NW6       29.71S
CANBY          CLOUDY    35  30  83 NW7       29.71F WCI  29
MARSHALL       CLOUDY    34  31  88 N12       29.68F WCI  25
REDWOOD FALLS  PTCLDY    37  32  82 NW8       29.69R
OLIVIA         CLOUDY    34  32  93 W3        29.69R
PIPESTONE      CLOUDY    34  30  86 NE8       29.67R WCI  27
WINDOM         CLOUDY    37  25  60 N10       29.65S
WORTHINGTON    CLOUDY    36  33  89 N12       29.65S
JACKSON        CLOUDY    36  34  93 N7        29.65R
SLAYTON        CLOUDY    34  32  92 N10       29.67R WCI  26
$$
MNZ065>067-074>077-082>085-091>093-180400-
   South Central Minnesota

CITY           SKY/WX    TMP DP  RH WIND       PRES   REMARKS
MANKATO        CLOUDY    38  35  89 N13       29.65S FOG
NEW ULM        CLOUDY    37  34  87 CALM      29.66F
ST JAMES       CLOUDY    37  36  93 N9        29.65F
FAIRMONT       PTCLDY    38  36  92 N14       29.63R FOG
GLENCOE        CLOUDY    38  38 100 CALM      29.66F FOG
FARIBAULT      FOG       37  37 100 N6        29.66R VSB 1
OWATONNA       FOG       37  37 100 N6        29.64R VSB 1/2
WASECA         FOG       36  36 100 N10       29.65S VSB 3/4
ALBERT LEA     DRZL/FOG  37  36  93 N8        29.60F VSB 1/2
$$
MNZ078>079-086>088-094>096-180400-
   Southeast Minnesota

CITY           SKY/WX    TMP DP  RH WIND       PRES   REMARKS
ROCHESTER      FOG       37  37 100 N5        29.61R VSB 1/2
RED WING       CLOUDY    37  36  93 CALM      29.64S FOG
STANTON        FOG       38  37  96 N6        29.64R VSB 1
DODGE CENTER   SNOW      36  36 100 NW3       29.62R VSB 1/4
WINONA         CLOUDY    36  36 100 N3        29.64R FOG
AUSTIN         RAIN      37  36  93 N3        29.60F VSB 3/4
PRESTON        FOG       36  35  96 CALM      29.61F VSB 1/2
$$
ABBREVIATIONS USED IN REMARKS
   TC - TEMPERATURES IN CELSIUS
  WCI - WIND CHILL INDEX
   HX - HEAT INDEX
  VSB - VISIBILITY
$$




USA.gov is the U.S. government's official web portal to all federal, state and local government web resources and services.